STARLINK-11334, 61250

Orbit data source: Space-Track

STARLINK-11334, 61250 is a payload satellite owned by SpaceX/Seattle (US) in LEO that was launched on Wed, 25 Sep 2024 UTC via an FALCON 9 launch vehicle from the Air Force Western Test Range (AFWTR). Payload-class satellites include a variety of spacecraft equipped with specific instruments for various scientific and technological missions. These include communications satellites like Starlink; space stations such as the ISS; scientific satellites like the Hubble; Earth observation satellites from companies like Planet Labs, Umbra, and HawkEye 360; GPS; miniature CubeSats for education and research; and military/defense satellites.

Not visible in the next 10 days
Identifier
61250, 2024-175H
Orbit
LEO
Country
Flag of USUS
Related business
Manufacturer
SpaceX/Seattle
Mission
Operational Commercial Communications
Bus & Motor
STARLINK V2MD, Unknown motor
Mass
960 kg wet, ~910 kg dry
Launch date (UTC)
2024-09-25 (1 year ago)
Launch vehicle
FALCON 9
Launch site
Air Force Western Test Range (AFWTR)
Object type
Payload
Rocket body
Debris
Shape & HBR
Box + 2 Pan, 14.5 m
Radar Cross Section
36.964 m², Large (>1 m²)

Expand to show TLE details & history
Last TLE update: 13 hours ago

TLE from 13 hours ago
0 STARLINK-11334
1 61250U 24175H   25260.25009259  .01267586  00000-0  49987-2 0  9994
2 61250  53.1454 188.2717 0004064 139.5637 322.7864 15.83580907  5744
Epoch: 2025-09-17T06:00Z
TLE epoch observation values (Epoch: 2025-09-17T06:00:07.999Z)
Latitude
51.57299°
Longitude
-148.15721°
Altitude
324.309 km
Speed
7.721 km/s
True Right ascension
19h 53m 13s
True Declination
51° 23' 40"
Sunlit
Object was in full shadow at epoch
Visualization orbit readout
Latitude
Unknown
Longitude
Unknown
Altitude
Unknown
Speed
Unknown
Apparent Right ascension
Unknown
Apparent Declination
Unknown
Sunlit
N/A
Visualization observer readout
Local Sidereal Time
12:11:04
Azimuth
Unknown
Elevation
Unknown
Doppler factor
Unknown
Orbital elements
Apogee altitude
323.31 km
Perigee altitude
317.866 km
Semi-major axis
6,698.725 km
Eccentricity
0.00041
Inclination
53.1454°
RAAN
188.2717°
Arg. of periapsis
139.5637°
True anomaly
322.75822°
Mean anomaly
322.7864°
Eccentric anomaly
322.77231°
Mean motion
3.95872 °/min
Orbital period
90.94 mins
BSTAR
0.0049987
Loading maneuver chart data...
Computing Atmospheric mass density...
Loading historical data...
Loading historical data...
Loading historical data...
Loading historical data...
Loading historical data...
Loading historical data...
Loading historical data...

Documentation

Showing up to 5 results
|